Location: Jastew
(49.9666°N, 20.6833°E)
Time: 22:25:50
(UTC+01:00)

ISS - Visible Passes

Search period start: 19 January 2018 00:00
Search period end: 29 January 2018 00:00
Orbit: 402 x 407 km, 51.6° (Epoch: 20 January)

Date Brightness Start Highest point End Pass type
(mag) Time Alt. Az. Time Alt. Az. Time Alt. Az.
25 Jan -1.3 18:12:59 10° S 18:13:26 11° SSE 18:13:26 11° SSE visible
26 Jan -1.3 18:55:15 10° SW 18:56:11 17° SSW 18:56:11 17° SSW visible
27 Jan -2.5 18:03:20 10° SSW 18:06:04 25° SE 18:06:11 25° SE visible
28 Jan -1.7 17:11:48 10° S 17:13:52 16° SE 17:15:57 10° E visible
28 Jan -2.5 18:46:39 10° WSW 18:48:46 36° SW 18:48:46 36° SW visible
